This is the latest recevied weather packets stored in our database for station/object SA7AHC. If no packets are shown the sender has not sent any weather packets the latest 10 day(s).
| Time | Temp. | Humidity | Pressure | Rain* | Wind** | Luminosity | Snow |
|---|---|---|---|---|---|---|---|
| 1778079970 | 12.22° C | 39% | 1013.1 hPa | 0 mm | - | 336 W/m² | - |
| 1778079368 | 12.22° C | 38% | 1013.1 hPa | 0 mm | - | 301 W/m² | - |
| 1778078770 | 12.22° C | 39% | 1013.1 hPa | 0 mm | - | 415 W/m² | - |
| 1778078161 | 12.22° C | 38% | 1013.1 hPa | 0 mm | - | 374 W/m² | - |
| 1778077569 | 12.78° C | 37% | 1013.1 hPa | 0 mm | - | 311 W/m² | - |
| 1778076965 | 12.78° C | 36% | 1013.1 hPa | 0 mm | - | 420 W/m² | - |
| 1778076364 | 12.78° C | 39% | 1013.1 hPa | 0 mm | - | 482 W/m² | - |
| 1778075768 | 12.78° C | 38% | 1013 hPa | 0 mm | - | 394 W/m² | - |
| 1778075159 | 12.78° C | 39% | 1012.8 hPa | 0 mm | - | 436 W/m² | - |
| 1778074551 | 12.22° C | 38% | 1012.7 hPa | 0 mm | - | 380 W/m² | - |
| 1778073956 | 12.22° C | 41% | 1012.7 hPa | 0 mm | - | 325 W/m² | - |
| 1778073341 | 12.22° C | 41% | 1012.7 hPa | 0 mm | - | 496 W/m² | - |
| 1778072741 | 12.78° C | 39% | 1012.9 hPa | 0 mm | - | 424 W/m² | - |
| 1778072141 | 12.78° C | 40% | 1012.9 hPa | 0 mm | - | 503 W/m² | - |
| 1778071539 | 12.78° C | 39% | 1012.9 hPa | 0 mm | - | 538 W/m² | - |
| 1778070936 | 12.22° C | 41% | 1012.8 hPa | 0 mm | - | 418 W/m² | - |
| 1778070335 | 12.78° C | 42% | 1012.8 hPa | 0 mm | - | 445 W/m² | - |
| 1778069735 | 13.33° C | 42% | 1012.9 hPa | 0 mm | - | 483 W/m² | - |
| 1778069134 | 13.33° C | 42% | 1013 hPa | 0 mm | - | 759 W/m² | - |
| 1778068538 | 12.78° C | 43% | 1013 hPa | 0 mm | - | 589 W/m² | - |
| 1778067937 | 12.22° C | 42% | 1012.9 hPa | 0 mm | - | 427 W/m² | - |
| 1778067324 | 12.22° C | 43% | 1013 hPa | 0 mm | - | 313 W/m² | - |
| 1778066720 | 12.22° C | 41% | 1013 hPa | 0 mm | - | 279 W/m² | - |
| 1778066122 | 12.78° C | 43% | 1013.1 hPa | 0 mm | - | 334 W/m² | - |
| 1778065532 | 12.22° C | 41% | 1013.1 hPa | 0 mm | - | 353 W/m² | - |
* Rain latest hour (hover to see other rain measurements)
** Current wind speed in m/s (hover to see current wind gust speed)